Flag for Canada Weather past 2 weeks in Campbell River, British Columbia, Canada

Now
36 °F

Passing clouds.


Feels Like: 27 °F
Forecast: 18 / 32 °F
Wind: 13 mph from Northwest

Location: Comox

Current Time: Dec 29, 2014 at 3:49:09 AM

Latest Report: Dec 29, 2014 at 3:00 AM


Visibility: 20 mi

Pressure: 30.40 "Hg

Humidity: 48%

Dew point: 18 °F

Location of Campbell RiverLocation

Historic Weather in Campbell River — Graph

°F

Campbell River temperature yesterday

Maximum temperature yesterday: 45 °F (at 1:00 PM)
Minimum temperature yesterday: 37 °F (at 12:00 AM)
Average temperature yesterday: 40 °F

Past Weeks' High & Low Weather Summary

 TemperatureHumidityPressure
High48 °F (Dec 18, 10:00 PM)100% (Dec 14, 9:00 AM)30.38 "Hg (Dec 14, 9:00 AM)
Low32 °F (Dec 15, 3:00 AM)48% (Dec 28, 11:00 PM)29.28 "Hg (Dec 20, 6:00 PM)
Average42 °F92%29.98 "Hg
* Reported Dec 14 2:00 AM — Dec 29 2:00 AM, Campbell River, Weather by CustomWeather, © 2014

Note: Actual official high and low records may vary slightly from our data, if they occured in-between our weather recording intervals... More about our weather records

Advertising

Campbell River weather history for previous 24 hours

 ConditionsComfort  
Time TempWeatherWind HumidityBarometerVisibility
2:00 AM
Dec 29
36 °FPassing clouds.13 mph48%30.37 "Hg20 mi
1:00 AM36 °FPassing clouds.13 mph48%30.34 "Hg20 mi
12:00 AM36 °FPassing clouds.13 mph52%30.31 "Hg20 mi
11:00 PM
Dec 28
37 °FPassing clouds.16 mph48%30.29 "Hg20 mi
10:00 PM37 °FPassing clouds.12 mph56%30.26 "Hg20 mi
9:00 PM39 °FPassing clouds.13 mph56%30.25 "Hg20 mi
8:00 PM39 °FLight rain. Passing clouds.15 mph61%30.23 "Hg20 mi
7:00 PM39 °FPassing clouds.13 mph65%30.21 "Hg20 mi
6:00 PM39 °FPassing clouds.8 mph70%30.20 "Hg20 mi
5:00 PM41 °FPassing clouds.7 mph70%30.19 "Hg20 mi
4:00 PM43 °FPassing clouds.15 mph71%30.18 "Hg20 mi
3:00 PM43 °FPassing clouds.15 mph76%30.18 "Hg20 mi
2:00 PM45 °FPassing clouds.15 mph71%30.19 "Hg20 mi
1:00 PM45 °FPassing clouds.16 mph71%30.20 "Hg20 mi
12:00 PM43 °FPassing clouds.14 mph71%30.21 "Hg20 mi
11:00 AM43 °FPassing clouds.17 mph71%30.22 "Hg20 mi
10:00 AM41 °FPassing clouds.20 mph76%30.22 "Hg20 mi
9:00 AM41 °FPassing clouds.16 mph70%30.22 "Hg20 mi
8:00 AM41 °FPassing clouds.17 mph70%30.20 "Hg20 mi
7:00 AM39 °FPassing clouds.12 mph81%30.19 "Hg20 mi
6:00 AM41 °FPassing clouds.16 mph76%30.17 "Hg20 mi
5:00 AM41 °FPassing clouds.16 mph70%30.17 "Hg20 mi
4:00 AM39 °FPassing clouds.15 mph81%30.16 "Hg20 mi
3:00 AM39 °FPassing clouds.12 mph81%30.15 "Hg20 mi
Weather by CustomWeather, © 2014

See weather overviewHow to use our weather pages